Weather History for Eureka, NU

Change the Weather History Date:

Sunday, November 10, 2013

  Actual Average Record
Temperature  
Mean Temperature -26 °F -  
Max Temperature -20 °F -21 °F 5 °F (1999)
Min Temperature -31 °F -34 °F -43 °F (2007)
Degree Days  
Heating Degree Days 90    
Moisture  
Dew Point -33 °F    
Average Humidity 60    
Maximum Humidity 69    
Minimum Humidity 40    
Precipitation  
Precipitation 0.00 in 0.00 in - ()
Sea Level Pressure  
Sea Level Pressure 29.89 in    
Wind  
Wind Speed 3 mph ()    
Max Wind Speed 6 mph    
Max Gust Speed -    
Visibility 14.1 miles    
Events Snow    
Averages and records for this station are not official NWS values.
T = Trace of Precipitation, MM = Missing Value Source: Averaged Metar Reports

Daily Weather History Graph

Daily Weather History Graph

Search for Another Location

Airport:

Trip Planner

Search our weather history database for the weather conditions in past years. The results will help you decide how hot, cold, wet, or windy it might be!

Date:

Astronomy

Dec. 31, 1969 Rise Set
Actual Time Sun does not rise Sun does not rise
Civil Twilight Sun does not rise Sun does not rise
Nautical Twilight 7:30 AM CST 3:22 PM CST
Astronomical Twilight 5:04 AM CST 5:47 PM CST
Moon 3:42 PM CST (11/10) 9:33 PM CST (11/10)
Length of Visible Light 0h 00m
Length of Day
0h 00m
First Quarter, 56% of the Moon is Illuminated
Nov 10
First Quarter
Nov 17
Full
Nov 25
Last Quarter
Dec 2
New
Dec 9
First Quarter

Hourly Weather History & Observations

Time (CST) Temp. Windchill Dew Point Humidity Pressure Visibility Wind Dir Wind Speed Gust Speed Precip Events Conditions
12:00 AM -13 °F - -23 °F 46% 29.93 in 7 mi SE 4.6 mph - - Snow Light Snow
12:00 AM -13.0 °F -25.1 °F -22.0 °F 64% 29.93 in 7.0 mi SE 4.6 mph - N/A Snow Light Snow
1:00 AM -13.0 °F -25.1 °F -22.0 °F 64% 29.92 in 7.0 mi SE 4.6 mph - N/A Snow Light Snow
2:00 AM -14.8 °F -29.1 °F -25.6 °F 58% 29.92 in 15.0 mi ESE 5.8 mph - N/A Snow Light Snow
2:27 AM - - - N/A% - 15.0 mi ESE 5.8 mph - N/A   Clear
3:00 AM -20.2 °F -33.5 °F -29.2 °F 63% 29.93 in 15.0 mi ESE 4.6 mph - N/A   Clear
4:00 AM -22.0 °F - -31.0 °F 63% 29.94 in 15.0 mi East 2.3 mph - N/A   Clear
5:00 AM -22.0 °F - -31.0 °F 63% 29.94 in 15.0 mi Calm Calm - N/A   Clear
6:00 AM -22 °F - -31 °F 44% 29.93 in 15 mi Calm Calm - - Snow Snow
6:00 AM -22.0 °F - -31.0 °F 63% 29.93 in 15.0 mi Calm Calm - N/A   Clear
7:00 AM -22.0 °F - -31.0 °F 63% 29.93 in 15.0 mi ESE 2.3 mph - N/A   Partly Cloudy
8:00 AM -23.8 °F - -32.8 °F 63% 29.92 in 15.0 mi Calm Calm - N/A   Partly Cloudy
9:00 AM -23.8 °F - -31.0 °F 69% 29.91 in 15.0 mi ESE 2.3 mph - N/A   Partly Cloudy
10:00 AM -25.6 °F - -34.6 °F 63% 29.91 in 15.0 mi Calm Calm - N/A   Partly Cloudy
11:00 AM -25.6 °F - -32.8 °F 69% 29.90 in 15.0 mi East 2.3 mph - N/A   Partly Cloudy
12:00 PM -26 °F - -36 °F 42% 29.89 in 15 mi East 2.3 mph - - Snow Snow
12:00 PM -25.6 °F -37.1 °F -34.6 °F 63% 29.89 in 15.0 mi ESE 3.5 mph - N/A   Clear
1:00 PM -23.8 °F - -32.8 °F 63% 29.88 in 15.0 mi West 2.3 mph - N/A   Clear
2:00 PM -31.0 °F - -40.0 °F 62% 29.88 in 15.0 mi Calm Calm - N/A   Clear
3:00 PM -27.4 °F -39.2 °F -34.6 °F 69% 29.87 in 15.0 mi ESE 3.5 mph - N/A   Clear
4:00 PM -27.4 °F - -36.4 °F 62% 29.86 in 15.0 mi East 2.3 mph - N/A   Clear
5:00 PM -25.6 °F - -36.4 °F 57% 29.86 in 15.0 mi South 2.3 mph - N/A   Clear
6:00 PM -28 °F - -38 °F 40% 29.85 in 15 mi ESE 4.6 mph - - Snow Snow
6:00 PM -27.4 °F -41.9 °F -38.2 °F 57% 29.85 in 15.0 mi SE 4.6 mph - N/A   Clear
7:00 PM -29.2 °F - -38.2 °F 62% 29.82 in 15.0 mi Calm Calm - N/A   Clear
8:00 PM -29.2 °F - -38.2 °F 62% 29.81 in 15.0 mi Calm Calm - N/A   Clear
9:00 PM -25.6 °F - -34.6 °F 63% 29.79 in 15.0 mi Calm Calm - N/A   Clear